This is the latest recevied weather packets stored in our database for station/object IW3HBX-3. If no packets are shown the sender has not sent any weather packets the latest 10 day(s).
| Time | Temp. | Humidity | Pressure | Rain* | Wind** | Luminosity | Snow |
|---|---|---|---|---|---|---|---|
| 1777696516 | 9.44° C | 70% | 1026.5 hPa | 0 mm | - | 26 W/m² | - |
| 1777696277 | 9.44° C | 71% | 1026.5 hPa | 0 mm | - | 20 W/m² | - |
| 1777696216 | 9.44° C | 71% | 1026.5 hPa | 0 mm | - | 20 W/m² | - |
| 1777695917 | 8.89° C | 72% | 1026.5 hPa | 0 mm | - | 18 W/m² | - |
| 1777695617 | 8.89° C | 72% | 1026.5 hPa | 0 mm | - | 14 W/m² | - |
| 1777695317 | 8.89° C | 74% | 1026.6 hPa | 0 mm | - | 10 W/m² | - |
| 1777695017 | 8.89° C | 73% | 1026.6 hPa | 0 mm | - | 7 W/m² | - |
| 1777694718 | 8.89° C | 74% | 1026.6 hPa | 0 mm | - | 5 W/m² | - |
| 1777694418 | 8.89° C | 74% | 1026.7 hPa | 0 mm | - | 3 W/m² | - |
| 1777694118 | 8.89° C | 74% | 1026.7 hPa | 0 mm | - | 2 W/m² | - |
| 1777693909 | 8.89° C | 75% | 1026.5 hPa | 0 mm | - | 1 W/m² | - |
| 1777693818 | 8.89° C | 74% | 1026.6 hPa | 0 mm | - | 1 W/m² | - |
| 1777693518 | 8.89° C | 75% | 1026.5 hPa | 0 mm | - | 1 W/m² | - |
| 1777693218 | 8.89° C | 75% | 1026.5 hPa | 0 mm | - | 0 W/m² | - |
| 1777692918 | 8.89° C | 76% | 1026.5 hPa | 0 mm | - | 0 W/m² | - |
| 1777692617 | 8.89° C | 75% | 1026.5 hPa | 0 mm | - | 0 W/m² | - |
| 1777692317 | 8.89° C | 74% | 1026.5 hPa | 0 mm | - | 0 W/m² | - |
| 1777692017 | 8.89° C | 74% | 1026.5 hPa | 0 mm | - | 0 W/m² | - |
| 1777691717 | 8.89° C | 73% | 1026.5 hPa | 0 mm | - | 0 W/m² | - |
| 1777691417 | 8.89° C | 73% | 1026.6 hPa | 0 mm | - | 0 W/m² | - |
| 1777691117 | 8.89° C | 74% | 1026.6 hPa | 0 mm | - | 0 W/m² | - |
| 1777690817 | 8.89° C | 74% | 1026.7 hPa | 0 mm | - | 0 W/m² | - |
| 1777690517 | 9.44° C | 73% | 1026.6 hPa | 0 mm | - | 0 W/m² | - |
| 1777690217 | 9.44° C | 73% | 1026.6 hPa | 0 mm | - | 0 W/m² | - |
| 1777689917 | 9.44° C | 73% | 1026.7 hPa | 0 mm | - | 0 W/m² | - |
* Rain latest hour (hover to see other rain measurements)
** Current wind speed in m/s (hover to see current wind gust speed)